Weather in Lipovka

Russia / Volgograd Oblast     49°46′03″N   44°55′44″E
temp.,
°C
wind,
m/s
gust,
m/s
humid.,
%
clouds,
%
prec.,
mm/h
press.,
hPa
HPBL,
m
16 june, wed
wed1600:00+18w35825 0.0 100887
03:00+17wsw358554 0.0 100981
06:00+19wsw478412 0.0 1009306
09:00+24wsw45620 0.0 1010920
12:00+27w67511 0.0 10111589
15:00+28wnw57470 0.0 10111703
18:00+27nw45550 0.0 1011842
21:00+22nnw22680 0.0 101218
17 june, thu
thu1700:00+20nne33784 0.0 101343
03:00+20n368063 0.0 1013126
06:00+21nne487813 0.0 1013238
09:00+25ne675994 0.0 1014714
12:00+27ne7854100 0.0 10151037
15:00+27ne8953100 0.0 10151037
18:00+24ne7105940 0.0 1017782
21:00+21ne8156293 0.0 1017525
18 june, fri
fri1800:00+19ene9175985 0.0 1018597
03:00+16ne61573100 0.0 1020461
06:00+16ne8157495 0.0 1021586
09:00+21ene9125388 0.0 1022951
12:00+24ene8944100 0.0 10221495
15:00+22ne8944100 0.0 10221355
18:00+20ne7105097 0.0 10231001
21:00+17ne613617 0.0 1025372
19 june, sat
sat1900:00+15ne613714 0.0 1025289
03:00+13ne513750 0.0 1026276
06:00+15ene612730 0.0 1027356
09:00+20ene79570 0.0 10271005
12:00+24e78430 0.0 10261447
15:00+25ene78370 0.0 10241552
18:00+24ene68440 0.0 1024661
21:00+19ene49570 0.0 1024141
20 june, sun
sun2000:00+17ene510590 0.0 1024158
03:00+15ene510660 0.0 1025166
06:00+17ene511690 0.0 1025275
09:00+23e79490 0.0 1025780
12:00+28e67350 0.0 10241443
15:00+29e67330 0.0 10221666
18:00+27ene584454 0.0 1022372
21:00+22ene4957100 0.0 1022145